COSMOS 2251 DEB, 34070

Orbit data source: Space-Track

COSMOS 2251 DEB, 34070 is space debris in LEO originally from a launch on Wed, 16 Jun 1993 UTC launched from the Plesetsk Missile And Space Complex (PKMTR). The debris from Iridium 33, an American commercial communications satellite, has been tracked extensively since its accidental collision with the defunct Russian satellite Cosmos 2251 in 2009. This event, occurring at high speed in low Earth orbit (LEO), generated thousands of pieces of space debris, significantly increasing the risk of further collisions. The Iridium 33 debris cloud has impacted space traffic management and orbital debris mitigation strategies, making it a subject of ongoing study in space situational awareness.

Loading next visibility...
Identifier
34070, 1993-036KH
Orbit
LEO
Country
Flag of CISCIS
Related business
Manufacturer
Unknown
Mission
Spacecraft
Bus & Motor
Unknown
Mass
Unknown
Launch date (UTC)
Icon of a cake. It is the launch day of the satellite!1993-06-16 (33 years ago)
Launch vehicle
Unknown
Launch site
Plesetsk Missile And Space Complex (PKMTR)
Object type
Payload
Rocket body
Debris
Shape & HBR
Unknown shape, 0.1 m
Radar Cross Section
Medium (>0.1 m² and <1 m²)

Expand to show TLE details & history
Last TLE update: 9 hours ago

TLE from 9 hours ago
0 COSMOS 2251 DEB
1 34070U 93036KH  26167.30646524  .00010545  00000-0  13058-2 0  9991
2 34070  73.9987 109.8456 0020114 183.1393 303.3191 14.82660586913568
Epoch: 2026-06-16T07:21Z
TLE epoch observation values (Epoch: 2026-06-16T07:21:18.596Z)
Latitude
50.91964°
Longitude
-105.62299°
Altitude
621.059 km
Speed
7.558 km/s
True Right ascension
17h 57m 08s
True Declination
50° 44' 53"
Sunlit
Object was in daylight at epoch
Visualization orbit readout
Latitude
Unknown
Longitude
Unknown
Altitude
Unknown
Speed
Unknown
Apparent Right ascension
Unknown
Apparent Declination
Unknown
Sunlit
N/A
Visualization observer readout
Local Sidereal Time
02:32:42
Azimuth
Unknown
Elevation
Unknown
Doppler factor
Unknown
Orbital elements
Apogee altitude
632.587 km
Perigee altitude
604.441 km
Semi-major axis
6,996.651 km
Eccentricity
0.00201
Inclination
73.9987°
RAAN
109.8456°
Arg. of periapsis
183.1393°
True anomaly
303.12623°
Mean anomaly
303.3191°
Eccentric anomaly
303.22269°
Mean motion
3.70858 °/min
Orbital period
97.07 mins
BSTAR
0.0013058

Documentation

Showing up to 5 results
|